Terminal Aerodrome Forecast
Issued by NWS

Home | Current Version | Previous Version | Text Only | Print | Product List | Glossary On
Versions: 1 2 3 4 5 6 7 8 9 10 11 12 13 14 15 16 17 18 19 20 21 22 23 24
000
FTUS46 KOTX 290527
TAFMWH
TAF
KMWH 290527Z 2906/3006 11004KT P6SM VCSH SCT050 OVC080
      TEMPO 2907/2911 3SM -SN BKN025
     FM291100 01015KT P6SM OVC050
     FM292000 02020G27KT P6SM SCT080
     FM300200 02013KT P6SM SKC=

USA.gov is the U.S. government's official web portal to all federal, state and local government web resources and services.